MDT,Max TemperatureF,Mean TemperatureF,Min TemperatureF,Max Dew PointF,MeanDew PointF,Min DewpointF,Max Humidity, Mean Humidity, Min Humidity, Max Sea Level PressureIn, Mean Sea Level PressureIn, Min Sea Level PressureIn, Max VisibilityMiles, Mean VisibilityMiles, Min VisibilityMiles, Max Wind SpeedMPH, Mean Wind SpeedMPH, Max Gust SpeedMPH,PrecipitationIn, CloudCover, Events, WindDirDegrees
2013-8-1,93,77,60,64,61,59,97,67,36,30.08,29.92,29.82,10,10,8,25,8,31,T,1,,83
2013-8-2,78,69,60,65,61,57,93,74,54,30.06,29.94,29.81,10,9,5,23,10,29,T,4,Rain,58
2013-8-3,81,71,61,64,62,57,100,77,54,30.15,30.07,29.99,10,9,2,29,15,35,0.07,6,Rain-Thunderstorm,115
2013-8-4,95,79,62,62,59,51,93,59,24,30.08,29.96,29.83,10,10,8,18,8,23,0.00,1,,206
2013-8-5,92,76,60,66,56,50,93,59,25,30.02,29.90,29.76,10,10,8,28,8,35,0.00,1,,87
2013-8-6,88,74,59,63,56,49,87,59,31,29.99,29.89,29.74,10,10,10,26,8,33,0.00,1,,68
2013-8-7,87,71,55,57,52,48,77,53,29,30.14,29.99,29.87,10,10,10,30,10,37,T,4,Rain-Thunderstorm,167
2013-8-8,85,68,51,57,54,48,89,63,37,30.04,30.00,29.96,10,10,10,17,6,23,0.00,0,,73
2013-8-9,85,72,59,60,56,52,97,69,40,30.15,30.07,29.99,10,10,10,17,7,24,T,2,Rain-Thunderstorm,67
2013-8-10,90,74,58,62,57,48,97,62,26,30.21,30.05,29.94,10,10,6,20,4,25,0.04,1,Rain-Thunderstorm,342
2013-8-11,87,72,57,64,59,54,93,65,37,30.16,30.09,29.97,10,8,1,62,6,72,0.69,5,Rain-Thunderstorm,113
2013-8-12,87,70,53,63,57,53,93,64,35,30.13,30.05,30.00,10,10,10,12,3,14,0.00,0,,218
2013-8-13,87,73,58,63,58,52,100,66,32,30.25,30.11,29.99,10,8,2,28,7,38,0.58,4,Rain-Thunderstorm,183
2013-8-14,84,70,56,61,57,51,100,67,34,30.12,30.05,29.97,10,10,10,18,5,23,0.01,1,Thunderstorm,17
2013-8-15,84,72,59,63,57,54,90,64,37,30.10,30.02,29.96,10,10,10,21,6,29,0.00,1,,28
2013-8-16,88,72,56,62,59,55,100,69,37,30.12,30.06,29.97,10,5,0,22,7,28,0.00,1,Fog,147
2013-8-17,92,78,63,66,63,61,93,66,38,29.98,29.93,29.86,10,10,8,23,11,30,0.00,0,,173
2013-8-18,86,74,62,69,64,56,93,74,54,29.95,29.91,29.88,10,9,5,21,7,26,0.00,0,,163
2013-8-19,94,76,57,60,58,55,93,62,30,29.97,29.90,29.82,10,10,10,15,5,18,0.00,0,,140
2013-8-20,98,78,57,65,58,54,87,55,22,29.94,29.81,29.76,10,10,10,13,3,16,T,0,Rain-Thunderstorm,252
2013-8-21,80,69,58,63,57,53,84,65,45,30.07,29.96,29.83,10,10,9,17,5,21,T,2,,69
2013-8-22,87,69,51,62,58,51,93,64,35,30.16,30.09,30.03,10,9,5,20,7,25,0.00,0,,107
2013-8-23,95,81,66,64,62,55,93,61,28,30.05,29.87,29.73,10,9,4,24,11,31,0.00,1,,169
2013-8-24,98,79,60,60,52,48,78,49,20,29.86,29.81,29.77,10,10,10,14,5,17,0.00,1,,234
2013-8-25,98,81,63,58,54,50,73,47,21,29.96,29.90,29.86,10,10,9,15,5,20,0.00,1,,171
2013-8-26,100,81,62,56,52,45,72,44,16,29.95,29.88,29.83,10,10,10,22,8,26,0.00,0,,249
2013-8-27,102,83,64,59,54,49,63,40,17,29.99,29.90,29.80,10,10,8,20,5,26,T,1,Rain-Thunderstorm,273
2013-8-28,96,81,66,68,63,55,93,64,34,30.06,29.95,29.86,10,10,9,25,6,31,T,2,Rain-Thunderstorm,69
2013-8-29,98,80,61,59,55,51,68,46,24,30.00,29.94,29.88,10,10,10,17,7,25,0.00,0,,333
2013-8-30,99,81,63,67,59,55,73,52,30,30.05,29.95,29.84,10,10,7,31,11,38,T,1,Thunderstorm,148
2013-8-31,91,74,56,61,54,47,81,53,24,30.04,29.92,29.86,10,10,4,30,10,38,0.03,0,Rain-Thunderstorm,345